Overview Statistics Trail Chart Weather Telemetry Raw packets
 

This is the latest recevied weather packets stored in our database for station/object N0KWA. If no packets are shown the sender has not sent any weather packets the latest 10 day(s).

<< 82 83 84 85 86 87 88 >>
Time Temp. Humidity Pressure Rain* Wind** Luminosity Snow
1787829774 21.67° C 99% 1019 hPa 32.51 mm - 0 W/m² -
1787829470 22.22° C 99% 1019 hPa 13.72 mm - 0 W/m² -
1787829166 22.22° C 99% 1018.9 hPa 1.27 mm - 0 W/m² -
1787828861 22.22° C 99% 1019.4 hPa 1.78 mm - 0 W/m² -
1787828564 22.22° C 99% 1018.7 hPa 3.05 mm - 0 W/m² -
1787828257 22.22° C 99% 1018.7 hPa 3.05 mm - 0 W/m² -
1787827955 22.22° C 99% 1018 hPa 4.83 mm - 0 W/m² -
1787827650 22.22° C 99% 1016.8 hPa 6.1 mm - 0 W/m² -
1787827345 22.22° C 99% 1016.7 hPa 3.05 mm - 0 W/m² -
1787827044 22.22° C 99% 1016.3 hPa 1.78 mm - 0 W/m² -
1787826739 22.22° C 99% 1016 hPa 0 mm - 0 W/m² -
1787826434 22.22° C 99% 1015.8 hPa 1.78 mm - 0 W/m² -
1787826131 22.22° C 99% 1015.7 hPa 1.78 mm - 0 W/m² -
1787825829 22.22° C 99% 1015.6 hPa 0 mm - 0 W/m² -
1787825528 22.22° C 99% 1015.6 hPa 0 mm - 0 W/m² -
1787825224 22.22° C 99% 1015.8 hPa 0 mm - 0 W/m² -
1787824921 22.22° C 99% 1015.6 hPa 0 mm - 0 W/m² -
1787824619 22.22° C 99% 1015.7 hPa 0 mm - 0 W/m² -
1787824314 22.22° C 99% 1015.6 hPa 0 mm - 0 W/m² -
1787824010 22.22° C 99% 1015.7 hPa 0 mm - 0 W/m² -
1787823704 22.22° C 99% 1015.8 hPa 0 mm - 0 W/m² -
1787823398 21.67° C 99% 1016 hPa 0 mm - 0 W/m² -
1787823093 21.67° C 99% 1016.2 hPa 0 mm - 0 W/m² -
1787822787 22.22° C 99% 1016.4 hPa 0 mm - 0 W/m² -
1787822482 22.22° C 99% 1016.3 hPa 0 mm - 0 W/m² -

* Rain latest hour (hover to see other rain measurements)
** Current wind speed in m/s (hover to see current wind gust speed)